Grand Forks Air Force Base

Airport
ICAO code: 
KRDR
Summary
ICAO Region: 
NAM
Territory: 
Location: 
Grand Forks, North Dakota,
Coordinates: 
Aerial View: 
47° 57' 43.758" N, 97° 23' 2.09" W
Airport CFIT: 
Altimeter Temperature Error Correction
Airport WX: 
Cumulonimbus
Metar
Observation
KRDR 241656Z 31011KT 10SM CLR M21/M25 A3011 RMK AO2A SLP228 T12081249 $
Station
Grand Forks Air Force Base
Date/Time
2022-01-24 16:56:00
Wind direction
310°
Wind speed
11 kts
Lowest cloud amount
n/a
Temperature
-20.8°C
Dew point
-24.9°C
Humidity
69%
Weather condition
n/a

Description

Grand Forks Air Force Base is a United States Air Force installation located just to the north of Emerado, North Dakota and approximately 26 km west of the central business district of Grand Forks, North Dakota.

Climatology

Humid Continental climate (Köppen climate classification Dfb) - Variable weather patterns and a large seasonal temperature variance. Summers are often warm and humid with frequent thunderstorms and winters can be very cold with frequent snowfall and persistent snow cover.

Runways

Designator Length Width Surface Rops
17/35 3764 46 ASP Yes/Yes
Airport map: 
Aerial View: 

SKYbrary Partners:

Safety knowledge contributed by: